Location: Demmingen
(48.6757°N, 10.4375°E)
Time: 08:38:42
(UTC+00:00)

Cosmos 1908 Rocket - Pass Details

Date: 23 May 2024
Orbit: 602 x 629 km, 82.5° (Epoch: 15 June)

Event Time Altitude Azimuth Distance (km) Brightness Sun altitude
Rises 00:13:28 0° 354° (N) 2,923 8.3 -19.5°
Reaches altitude 10° 00:15:47 10° 360° (N) 2,008 7.3 -19.4°
Maximum altitude 00:20:06 50° 76° (ENE) 796 4.2 -19.2°
Enters shadow 00:22:24 25° 140° (SE) 1,257 4.8 -19.1°
